Location: Azul
(36.7830°S, 59.8500°W)
Time: 17:52:32
(UTC-03:00)

FO-29 - Pass Details

Date: 30 October 2021
Orbit: 799 x 1322 km, 98.5° (Epoch: 05 December)

Event Time Altitude Azimuth Distance (km) Brightness Sun altitude
Rises 20:23:28 0° 146° (SE) 4,242 12.8 -10.6°
Reaches altitude 10° 20:27:49 10° 123° (ESE) 3,327 12.0 -11.4°
Maximum altitude 20:31:46 15° 92° (E) 3,008 11.5 -12.1°
Enters shadow 20:33:23 14° 78° (ENE) 3,071 11.5 -12.3°
